• In Hungary
  • List of Countries
  • For 7 days
  • Water Temperature
  • Satellite Maps
  • Weather Map
  • News
  • Weather Widgets
  • user-avatar
    Login

    Hourly Weather Hlucin

    Today, 16 December, Saturday

    Time Temperature Precipitation Wind Pressure Humidity
    00:00 +2°C° 0 mm 1 mps 729 mmHg 82%
    01:00 +1°C° 0 mm 0 mps 728 mmHg 82%
    02:00 +1°C° 0 mm 1 mps 728 mmHg 82%
    03:00 +1°C° 0 mm 1 mps 728 mmHg 83%
    04:00 +1°C° 0 mm 1 mps 728 mmHg 83%
    05:00 +1°C° 0 mm 1 mps 728 mmHg 83%
    06:00 +1°C° 0 mm 1 mps 728 mmHg 84%
    07:00 +1°C° 0 mm 1 mps 729 mmHg 81%
    08:00 +2°C° 0 mm 1 mps 729 mmHg 79%
    09:00 +2°C° 0 mm 1 mps 730 mmHg 77%
    10:00 +2°C° 0 mm 1 mps 730 mmHg 74%
    11:00 +3°C° 0 mm 1 mps 731 mmHg 73%
    12:00 +3°C° 0 mm 1 mps 731 mmHg 71%
    13:00 +3°C° 0 mm 1 mps 732 mmHg 69%
    14:00 +3°C° 0 mm 1 mps 732 mmHg 73%
    15:00 +2°C° 0 mm 1 mps 733 mmHg 76%
    16:00 +2°C° 0 mm 1 mps 733 mmHg 80%
    17:00 +2°C° 0 mm 1 mps 734 mmHg 81%
    18:00 +2°C° 0 mm 1 mps 734 mmHg 82%
    19:00 +2°C° 0 mm 1 mps 735 mmHg 83%
    20:00 -1°C° 0 mm 2 mps 735 mmHg 84%
    21:00 -1°C° 0 mm 2 mps 736 mmHg 84%
    22:00 -1°C° 0 mm 2 mps 736 mmHg 85%
    23:00 -1°C° 0 mm 2 mps 736 mmHg 85%

    Tomorrow, 17 December, Sunday

    Time Temperature Precipitation Wind Pressure Humidity
    00:00 -1°C° 0 mm 2 mps 737 mmHg 85%
    01:00 -1°C° 0 mm 2 mps 737 mmHg 85%
    02:00 -1°C° 0 mm 2 mps 737 mmHg 85%
    03:00 -1°C° 0 mm 2 mps 738 mmHg 86%
    04:00 -1°C° 0 mm 2 mps 738 mmHg 86%
    05:00 -1°C° 0.1 mm 2 mps 738 mmHg 87%
    06:00 -1°C° 0.1 mm 2 mps 738 mmHg 88%
    07:00 -1°C° 0.1 mm 2 mps 739 mmHg 89%
    08:00 -1°C° 0.1 mm 2 mps 739 mmHg 86%
    09:00 +1°C° 0.1 mm 2 mps 740 mmHg 84%
    10:00 +1°C° 0.1 mm 2 mps 740 mmHg 82%
    11:00 +2°C° 0.1 mm 2 mps 740 mmHg 80%
    12:00 +2°C° 0.1 mm 2 mps 740 mmHg 77%
    13:00 +2°C° 0.1 mm 2 mps 740 mmHg 75%
    14:00 +2°C° 0.1 mm 2 mps 741 mmHg 79%
    15:00 +2°C° 0.1 mm 1 mps 741 mmHg 82%
    16:00 +1°C° 0.1 mm 1 mps 741 mmHg 85%
    17:00 +1°C° 0.2 mm 1 mps 742 mmHg 86%
    18:00 +1°C° 0.2 mm 1 mps 742 mmHg 88%
    19:00 +1°C° 0.2 mm 1 mps 743 mmHg 89%
    20:00 -1°C° 0.2 mm 2 mps 743 mmHg 90%
    21:00 -1°C° 0.2 mm 2 mps 743 mmHg 90%
    22:00 -1°C° 0.2 mm 2 mps 744 mmHg 91%
    23:00 -2°C° 0.1 mm 2 mps 744 mmHg 92%

    Day after tomorrow, 18 December, Monday

    Time Temperature Precipitation Wind Pressure Humidity
    00:00 -2°C° 0.1 mm 2 mps 744 mmHg 92%
    01:00 -2°C° 0.1 mm 2 mps 745 mmHg 93%
    02:00 -2°C° 0 mm 2 mps 745 mmHg 93%
    03:00 -1°C° 0 mm 1 mps 745 mmHg 93%
    04:00 -1°C° 0 mm 1 mps 745 mmHg 93%
    05:00 -1°C° 0 mm 1 mps 745 mmHg 93%
    06:00 -1°C° 0 mm 1 mps 745 mmHg 92%
    07:00 -1°C° 0 mm 1 mps 745 mmHg 92%
    08:00 -1°C° 0 mm 1 mps 745 mmHg 89%
    09:00 0°C° 0 mm 1 mps 745 mmHg 86%
    10:00 0°C° 0 mm 1 mps 746 mmHg 83%
    11:00 +1°C° 0 mm 1 mps 745 mmHg 79%
    12:00 +1°C° 0 mm 1 mps 745 mmHg 76%
    13:00 +2°C° 0 mm 1 mps 745 mmHg 72%
    14:00 +1°C° 0 mm 1 mps 745 mmHg 75%
    15:00 0°C° 0 mm 1 mps 745 mmHg 79%
    16:00 0°C° 0 mm 1 mps 745 mmHg 82%
    17:00 -1°C° 0 mm 1 mps 746 mmHg 83%
    18:00 -1°C° 0 mm 1 mps 746 mmHg 83%
    19:00 -1°C° 0 mm 1 mps 747 mmHg 84%
    20:00 -1°C° 0 mm 1 mps 747 mmHg 84%
    21:00 -1°C° 0 mm 1 mps 747 mmHg 84%
    22:00 -2°C° 0 mm 0 mps 748 mmHg 84%
    23:00 -1°C° 0 mm 1 mps 748 mmHg 84%

    19 December, Tuesday

    Time Temperature Precipitation Wind Pressure Humidity
    00:00 -2°C° 0 mm 1 mps 748 mmHg 85%
    01:00 -2°C° 0 mm 1 mps 748 mmHg 85%
    02:00 -2°C° 0 mm 1 mps 748 mmHg 85%
    03:00 -2°C° 0 mm 1 mps 749 mmHg 85%
    04:00 -2°C° 0 mm 1 mps 749 mmHg 85%
    05:00 -2°C° 0 mm 1 mps 749 mmHg 86%
    06:00 -2°C° 0 mm 1 mps 749 mmHg 86%
    07:00 -2°C° 0 mm 1 mps 750 mmHg 86%
    08:00 -1°C° 0 mm 1 mps 750 mmHg 84%
    09:00 -1°C° 0 mm 1 mps 750 mmHg 81%
    10:00 0°C° 0 mm 1 mps 751 mmHg 78%
    11:00 +1°C° 0 mm 1 mps 750 mmHg 76%
    12:00 +1°C° 0 mm 1 mps 750 mmHg 74%
    13:00 +2°C° 0 mm 1 mps 750 mmHg 71%
    14:00 +1°C° 0 mm 1 mps 750 mmHg 75%
    15:00 +1°C° 0 mm 1 mps 750 mmHg 79%
    16:00 0°C° 0 mm 1 mps 750 mmHg 83%
    17:00 0°C° 0 mm 1 mps 750 mmHg 83%
    18:00 -1°C° 0 mm 2 mps 750 mmHg 84%
    19:00 -1°C° 0 mm 2 mps 750 mmHg 84%
    20:00 -1°C° 0 mm 2 mps 750 mmHg 85%
    21:00 -1°C° 0 mm 2 mps 750 mmHg 87%
    22:00 -1°C° 0 mm 2 mps 750 mmHg 88%
    23:00 -1°C° 0.2 mm 2 mps 749 mmHg 89%

    20 December, Wednesday

    Time Temperature Precipitation Wind Pressure Humidity
    00:00 -1°C° 0.2 mm 2 mps 749 mmHg 91%
    01:00 +1°C° 0.2 mm 2 mps 748 mmHg 92%
    02:00 +1°C° 0.7 mm 2 mps 748 mmHg 92%
    03:00 +1°C° 0.7 mm 2 mps 747 mmHg 93%
    04:00 +1°C° 0.7 mm 2 mps 746 mmHg 93%
    05:00 +1°C° 1.3 mm 2 mps 746 mmHg 94%
    06:00 +1°C° 1.3 mm 2 mps 746 mmHg 95%
    07:00 +1°C° 1.3 mm 2 mps 746 mmHg 95%
    08:00 +1°C° 1.2 mm 2 mps 746 mmHg 96%
    09:00 +2°C° 1.2 mm 2 mps 746 mmHg 97%
    10:00 +2°C° 1.2 mm 2 mps 746 mmHg 97%
    11:00 +2°C° 0.8 mm 2 mps 746 mmHg 98%
    12:00 +3°C° 0.8 mm 1 mps 746 mmHg 98%
    13:00 +3°C° 0.8 mm 1 mps 746 mmHg 99%
    14:00 +3°C° 0.9 mm 1 mps 746 mmHg 98%
    15:00 +3°C° 0.9 mm 1 mps 746 mmHg 98%
    16:00 +3°C° 0.9 mm 1 mps 746 mmHg 98%
    17:00 +3°C° 1.1 mm 1 mps 746 mmHg 98%
    18:00 +3°C° 1.1 mm 1 mps 747 mmHg 98%
    19:00 +3°C° 1.1 mm 1 mps 747 mmHg 98%
    20:00 +3°C° 0.8 mm 1 mps 747 mmHg 98%
    21:00 +3°C° 0.8 mm 1 mps 747 mmHg 98%
    22:00 +4°C° 0.8 mm 1 mps 747 mmHg 98%
    23:00 +3°C° 0.8 mm 2 mps 747 mmHg 98%

    21 December, Thursday

    Time Temperature Precipitation Wind Pressure Humidity
    00:00 +3°C° 0.8 mm 2 mps 747 mmHg 98%
    01:00 +3°C° 0.8 mm 2 mps 747 mmHg 98%
    02:00 +3°C° 0.9 mm 2 mps 747 mmHg 98%
    03:00 +4°C° 0.9 mm 2 mps 747 mmHg 98%
    04:00 +4°C° 0.9 mm 2 mps 747 mmHg 98%
    05:00 +4°C° 0.1 mm 2 mps 747 mmHg 98%
    06:00 +4°C° 0.1 mm 2 mps 748 mmHg 98%
    07:00 +4°C° 0.1 mm 2 mps 748 mmHg 97%
    08:00 +4°C° 0.1 mm 2 mps 748 mmHg 98%
    09:00 +4°C° 0.1 mm 2 mps 748 mmHg 98%
    10:00 +4°C° 0.1 mm 2 mps 748 mmHg 98%
    11:00 +4°C° 0.9 mm 2 mps 747 mmHg 98%
    12:00 +3°C° 0.9 mm 3 mps 747 mmHg 98%
    13:00 +4°C° 0.9 mm 3 mps 747 mmHg 97%
    14:00 +4°C° 0.9 mm 3 mps 746 mmHg 97%
    15:00 +4°C° 0.9 mm 3 mps 746 mmHg 97%
    16:00 +4°C° 0.9 mm 3 mps 746 mmHg 96%
    17:00 +4°C° 1.1 mm 3 mps 746 mmHg 96%
    18:00 +4°C° 1.1 mm 3 mps 746 mmHg 96%
    19:00 +4°C° 1.1 mm 3 mps 746 mmHg 96%
    20:00 +4°C° 0.7 mm 3 mps 746 mmHg 96%
    21:00 +4°C° 0.7 mm 3 mps 746 mmHg 95%
    22:00 +4°C° 0.7 mm 3 mps 746 mmHg 95%
    23:00 +4°C° 0.6 mm 4 mps 745 mmHg 94%
    Show more